Somerville, NJ

11:40 PM EST on November 16, 2019 (GMT -0500)
Somerset

Weather History for KSMQ - September, 2019

Change the Weather History Date:

Sunday, September 29, 2019

  Actual Average Record
Temperature  
Mean Temperature 72 °F -  
Max Temperature 82 °F 69 °F 86 °F (1946)
Min Temperature 63 °F 46 °F 31 °F (1957)
Cooling Degree Days 8    
Growing Degree Days 22 (Base 50)    
Moisture  
Dew Point 58 °F    
Average Humidity 72    
Maximum Humidity 97    
Minimum Humidity 27    
Precipitation  
Precipitation 0.00 in - - ()
Sea Level Pressure  
Sea Level Pressure 30.16 in    
Wind  
Wind Speed 2 mph (North)    
Max Wind Speed 10 mph    
Max Gust Speed -    
Visibility 6 miles    
Events Fog    
Averages and records for this station are not official NWS values.
T = Trace of Precipitation, MM = Missing Value Source: NWS Daily Summary

Daily Weather History Graph

Daily Weather History Graph

Search for Another Location

Airport or City:

Astronomy

Sep. 29, 2019 Rise Set
Actual Time 6:52 AM EDT 6:44 PM EDT
Civil Twilight 6:25 AM EDT 7:11 PM EDT
Nautical Twilight 5:53 AM EDT 7:43 PM EDT
Astronomical Twilight 5:21 AM EDT 8:15 PM EDT
Moon 7:40 AM EDT (9/29) 7:43 PM EDT (9/29)
Length of Visible Light 12h 46m
Length of Day
11h 51m
New Moon, 1% of the Moon is Illuminated
Sep 29
New Moon
Oct 5
First Quarter
Oct 13
Full
Oct 21
Last Quarter
Oct 27
New

Hourly Weather History & Observations

Time (EDT) Temp. Heat Index Dew Point Humidity Pressure Visibility Wind Dir Wind Speed Gust Speed Precip Events Conditions
12:10 AM 68.0 °F - 66.0 °F 93% 30.07 in 2.5 mi Calm Calm - N/A   Clear
12:18 AM 69.1 °F - 66.9 °F 93% 30.07 in 5.0 mi Calm Calm - N/A   Clear
12:53 AM 66.9 °F - 64.9 °F 93% 30.08 in 3.0 mi Calm Calm - N/A   Clear
1:37 AM 66.0 °F - 64.9 °F 96% 30.08 in 1.8 mi Calm Calm - N/A   Clear
1:47 AM 66.2 °F - 64.4 °F 94% 30.08 in 3.0 mi NNW 3.5 mph - N/A   Clear
1:53 AM 66.9 °F - 64.9 °F 93% 30.09 in 5.0 mi North 3.5 mph - N/A   Clear
2:21 AM 64.9 °F - 64.0 °F 97% 30.09 in 2.0 mi Calm Calm - N/A   Clear
2:51 AM 64.4 °F - 62.6 °F 94% 30.09 in 1.0 mi Calm Calm - N/A   Mist
2:53 AM 64.9 °F - 64.0 °F 97% 30.09 in 1.0 mi Calm Calm - N/A   Mist
3:00 AM 64.9 °F - 64.0 °F 97% 30.10 in 0.8 mi Calm Calm - N/A   Mist
3:04 AM 66.0 °F - 64.0 °F 93% 30.10 in 1.2 mi Calm Calm - N/A   Scattered Clouds
3:09 AM 64.9 °F - 64.0 °F 97% 30.10 in 4.0 mi Calm Calm - N/A   Partly Cloudy
3:33 AM 64.0 °F - 63.0 °F 96% 30.10 in 1.8 mi Calm Calm - N/A   Clear
3:37 AM 64.0 °F - 63.0 °F 96% 30.10 in 0.8 mi Calm Calm - N/A   Mist
3:53 AM 63.0 °F - 62.1 °F 97% 30.11 in 0.5 mi Calm Calm - N/A Fog Fog
4:00 AM 64.0 °F - 63.0 °F 96% 30.11 in 1.2 mi Calm Calm - N/A   Scattered Clouds
4:06 AM 64.9 °F - 63.0 °F 93% 30.11 in 3.0 mi Calm Calm - N/A   Partly Cloudy
4:53 AM 66.0 °F - 64.0 °F 93% 30.12 in 9.0 mi NNW 3.5 mph - N/A   Clear
5:53 AM 64.0 °F - 62.1 °F 93% 30.14 in 10.0 mi NNW 3.5 mph - N/A   Clear
6:53 AM 66.9 °F - 63.0 °F 87% 30.16 in 10.0 mi North 4.6 mph - N/A   Clear
7:53 AM 69.1 °F - 63.0 °F 81% 30.17 in 10.0 mi North - - N/A   Clear
8:53 AM 73.0 °F - 62.1 °F 68% 30.19 in 10.0 mi North - - N/A   Clear
9:53 AM 75.9 °F - 61.0 °F 60% 30.23 in 10.0 mi North 10.4 mph - N/A   Mostly Cloudy
10:53 AM 77.0 °F - 60.1 °F 56% 30.24 in 10.0 mi North 8.1 mph - N/A   Mostly Cloudy
11:53 AM 75.0 °F - 60.1 °F 60% 30.25 in 10.0 mi North 4.6 mph - N/A   Overcast
12:53 PM 75.9 °F - 59.0 °F 56% 30.24 in 10.0 mi North 3.5 mph - N/A   Overcast
1:53 PM 79.0 °F - 57.0 °F 47% 30.22 in 10.0 mi Calm Calm - N/A   Scattered Clouds
2:53 PM 81.0 °F 80.8 °F 55.9 °F 42% 30.21 in 10.0 mi North 6.9 mph - N/A   Clear
3:53 PM 82.0 °F 81.3 °F 54.0 °F 38% 30.20 in 10.0 mi East 6.9 mph - N/A   Clear
4:53 PM 82.9 °F - 46.0 °F 27% 30.20 in 10.0 mi Variable 4.6 mph - N/A   Clear
5:53 PM 78.1 °F - 43.0 °F 29% 30.21 in 10.0 mi Variable 4.6 mph - N/A   Clear
6:53 PM 73.9 °F - 39.9 °F 29% 30.23 in 10.0 mi NE 5.8 mph - N/A   Clear
7:53 PM 70.0 °F - 37.9 °F 31% 30.25 in 10.0 mi North 3.5 mph - N/A   Clear
8:53 PM 66.9 °F - 37.0 °F 33% 30.26 in 10.0 mi North 4.6 mph - N/A   Clear
9:53 PM 63.0 °F - 43.0 °F 48% 30.27 in 10.0 mi Calm Calm - N/A   Clear
10:53 PM 64.9 °F - 34.0 °F 32% 30.27 in 10.0 mi North 5.8 mph - N/A   Clear
11:53 PM 63.0 °F - 37.9 °F 40% 30.28 in 10.0 mi Calm Calm - N/A   Clear